Simultaneous Nadir Overpasses (SNOs) Predictions

Prediction of SNOs between GOES-16 and FY3D Satellite Orbit:

Table of predicted SNOs for the next 14.0 days since TLE Epoch: 6/8/2024
Index Date Time (GOES-16) GOES-16 Lat,Lon FY3D Lat,Lon Distance(km) Time Diff (sec)
1 06/08/2024 07:39:30 0.02, -75.20 0.35, -76.75 176.31 80
2 06/09/2024 07:18:17 0.02, -75.21 -0.65, -72.25 336.90 80
3 06/10/2024 19:43:10 -0.02, -75.21 -0.57, -77.58 270.86 80
4 06/11/2024 19:21:58 -0.02, -75.22 0.49, -73.10 243.03 80
5 06/13/2024 07:46:42 0.03, -75.24 0.74, -78.39 359.49 80
6 06/14/2024 07:25:28 0.02, -75.25 -0.26, -73.89 154.91 80
7 06/15/2024 19:50:22 -0.03, -75.27 -0.93, -79.23 451.26 80
8 06/16/2024 19:29:08 -0.02, -75.29 0.08, -74.73 63.50 80
9 06/19/2024 07:35:20 0.01, -75.33 0.07, -75.54 23.53 80
10 06/20/2024 07:14:07 0.01, -75.35 -0.95, -71.04 491.29 80
11 06/21/2024 19:39:00 -0.00, -75.37 -0.22, -76.38 114.44 80
